Tracking 20623 objects as of 4-Apr-2020
HD Live streaming from Space Station
objects crossing your sky now

COSMOS 970 DEB

Track COSMOS 970 DEB now!
10-day predictions


NORAD ID: 10570
Int'l Code: 1977-121M
Perigee: 971.8 km
Apogee: 999.1 km
Inclination: 65.4 °
Period: 104.7 minutes
Semi major axis: 7356 km
RCS: 0.049 m2 (small)
Launch date: December 21, 1977
Source: Commonwealth of Independent States (former USSR) (CIS)
Launch site: TYURATAM MISSILE AND SPACE COMPLEX (TTMTR)

Note: This is SATELLITE DEBRIS
aabbcc
Your satellite tracking list
Your tracking list is empty




NASA's NSSDC Master Catalog

Two Line Element Set (TLE):
1 10570U 77121M   20094.90989233 +.00000679 +00000-0 +78542-3 0  9990
2 10570 065.3657 059.2896 0018531 269.4725 122.6484 13.75946981095261
Source of the keplerian elements: AFSPC